Regional Weather Roundup
Issued by NWS

Home | Current Version | Previous Version | Graphics & Text | Print | Product List | Glossary Off
Versions: 1 2 3 4 5 6 7 8 9 10 11 12 13 14 15 16 17 18 19 20 21 22 23 24 25 26 27 28 29 30 31 32 33 34 35 36 37 38 39 40 41 42 43 44 45 46 47 48 49 50

000
ASUS43 KFSD 271210
RWRSD

WEATHER ROUNDUP FOR SOUTH DAKOTA
NATIONAL WEATHER SERVICE SIOUX FALLS SD
600 AM CST FRI FEB 27 2015

NOTE: "FAIR" INDICATES FEW OR NO CLOUDS BELOW 12,000 FEET WITH NO
SIGNIFICANT WEATHER AND/OR OBSTRUCTIONS TO VISIBILITY.


SDZ001>005-009-010-012>017-271300-
NORTHWEST AND NORTH CENTRAL SOUTH DAKOTA

CITY           SKY/WX    TMP DP  RH WIND       PRES   REMARKS
BUFFALO          N/A     -5 -11  75 SE6       30.14F WCI -18
FAITH            N/A     -4  -9  79 S13       30.31F WCI -23
MOBRIDGE       PTCLDY    -9 -14  78 SE6       30.40F WCI -22
$$

SDZ012>016-024>037-041>051-057-063-072>074-271300-
SOUTHWEST AND SOUTH CENTRAL SOUTH DAKOTA

CITY           SKY/WX    TMP DP  RH WIND       PRES   REMARKS
RAPID CTY ARPT CLEAR     -3  -9  75 S9        30.24F WCI -19
PIERRE         CLEAR     -8 -12  83 CALM      30.45S
CUSTER         CLEAR     -7 -13  75 SW5       30.02F WCI -18
ELLSWORTH AFB  CLEAR      0  -8  71 SE9       30.22F WCI -16
PHILIP         CLEAR    -10 -16  74 CALM      30.39S
PINE RIDGE     CLEAR     -1  -8  72 CALM      30.27F
WINNER         FAIR       1  -9  62 SW5       30.44F WCI  -9
$$

SDZ004>011-016>023-039-040-271300-
NORTHEAST SOUTH DAKOTA

CITY           SKY/WX    TMP DP  RH WIND       PRES   REMARKS
ABERDEEN       PTCLDY   -18 -23  77 S5        30.51R WCI -31
WATERTOWN      PTCLDY   -13 -19  75 CALM      30.45S
SISSETON         N/A     -4 -11  72 NW12      30.49S WCI -22
$$

SDZ017-020-022-023-036>040-048>070-271300-
SOUTHEAST SOUTH DAKOTA

CITY           SKY/WX    TMP DP  RH WIND       PRES   REMARKS
SIOUX FALLS    FAIR     -11 -16  78 W3        30.52S
HURON          MOCLDY   -18 -21  87 CALM      30.53S
CHAMBERLAIN    CLEAR     -6 -10  84 CALM      30.49R
MITCHELL       CLEAR     -5 -10  79 SW5       30.55S WCI -16
YANKTON        CLEAR     -4  -8  84 CALM      30.57S
$$

ABBREVIATIONS USED IN REMARKS
   TC - TEMPERATURE IN CELSIUS
  WCI - WIND CHILL INDEX
   HX - HEAT INDEX
  VSB - VISIBILITY



USA.gov is the U.S. government's official web portal to all federal, state and local government web resources and services.